Pagina principale
METAR-TAF:

METAR-TAF

Aeroporti :

Payerne, Svizzera

latitudine: 46-49N, longitudine: 006-57E, altezza: 490 m

Osservazione

Il bollettino è stato emesso 1 ora e 2 minuti fa, alle 14:50 UTC
Vento 5 kt da ovest
Temperature 7°C
Umidità 70%
Pressione 1022 hPa
Visibilità 10 km o più
Nubi sparse ad un'altezza di 4100 ft
Nuvoloso ad un'altezza di 4800 ft

METAR: LSMP 191450Z 26005KT 9999 SCT041 BKN048 07/02 Q1022 RMK BLU

Ora: 16:52 (15:52 UTC)


TAF: mancante

Osservazioni e previsioni meteorologiche di più di 4000 aeroporti (messaggi METAR e TAF).

Le stazioni disponibili sono rappresentate dai dischi gialli e rossi sulla carta.

Puntare il mouse per vedere il nome della stazione.

Clicca sopra per visualizzare le osservazioni e previsioni meteorologiche.

Per cambiare la mappa : fare clic sui pulsanti verdi con una croce nera per ingrandire, il pulsante verde con un trattino per diminuire, o sulla freccia verde per le mappe adiacenti.


METAR-TAF: